This demonstration page uses our WeatherBlox Daily Observations layout. Learn more.

Left ArrowRight Arrow

Hourly Observations for March 20, 2022

Temp ( °F °C ) Dew Point ( °F °C ) Humidity (%) Winds ( mph kmh ) Pressure ( in mb ) Visibility ( mi km ) Precip ( " mm )
12:15 am 00:15 Clear 37 3 25 -4 60 60 SW 6 9 30.09 1019 10 16 0.00 0.00
12:35 am 00:35 Clear 36 2 25 -4 65 65 SW 8 13 30.10 1019 10 16 0.00 0.00
12:55 am 00:55 Clear 37 3 25 -4 60 60 SW 7 11 30.09 1019 10 16 0.00 0.00
1:15 am 01:15 Clear 37 3 25 -4 60 60 SW 7 11 30.09 1019 10 16 0.00 0.00
1:35 am 01:35 Clear 39 4 23 -5 52 52 SW 8 13 30.08 1019 10 16 0.00 0.00
1:55 am 01:55 Clear 41 5 23 -5 49 49 SW 6 9 30.06 1018 10 16 0.00 0.00
2:15 am 02:15 Clear 39 4 25 -4 56 56 SW 8 13 30.07 1018 10 16 0.00 0.00
2:35 am 02:35 Clear 36 2 23 -5 60 60 SW 7 11 30.10 1019 10 16 0.00 0.00
2:55 am 02:55 Clear 36 2 23 -5 60 60 SW 7 11 30.09 1019 10 16 0.00 0.00
3:15 am 03:15 Clear 37 3 25 -4 60 60 SW 8 13 30.08 1019 10 16 0.00 0.00
3:35 am 03:35 Clear 37 3 23 -5 56 56 SW 7 11 30.08 1019 10 16 0.00 0.00
3:55 am 03:55 Clear 37 3 23 -5 56 56 SW 6 9 30.08 1019 10 16 0.00 0.00
4:15 am 04:15 Clear 37 3 23 -5 56 56 SSW 6 9 30.07 1018 10 16 0.00 0.00
4:35 am 04:35 Clear 43 6 25 -4 49 49 SSW 9 15 30.03 1017 10 16 0.00 0.00
4:55 am 04:55 Clear 43 6 25 -4 49 49 SSW 8 13 30.03 1017 10 16 0.00 0.00
5:15 am 05:15 Clear 43 6 25 -4 49 49 S 7 11 30.03 1017 10 16 0.00 0.00
5:35 am 05:35 Clear 43 6 25 -4 49 49 S 7 11 30.03 1017 10 16 0.00 0.00
5:55 am 05:55 Clear 43 6 27 -3 53 53 S 8 13 30.02 1017 10 16 0.00 0.00
6:15 am 06:15 Clear 43 6 27 -3 53 53 S 8 13 30.02 1017 10 16 0.00 0.00
6:35 am 06:35 Clear 43 6 27 -3 53 53 S 6 9 30.02 1017 10 16 0.00 0.00
6:55 am 06:55 Clear 43 6 27 -3 53 53 S 9 15 30.01 1016 10 16 0.00 0.00
7:15 am 07:15 Clear 43 6 27 -3 53 53 S 6 9 30.00 1016 10 16 0.00 0.00
7:35 am 07:35 Clear 43 6 27 -3 53 53 SSE 7 11 29.99 1016 10 16 0.00 0.00
7:55 am 07:55 Sunny 45 7 27 -3 49 49 SSE 8 13 29.97 1015 10 16 0.00 0.00
8:15 am 08:15 Sunny 43 6 27 -3 53 53 SE 5 7 29.98 1015 10 16 0.00 0.00
8:35 am 08:35 Sunny 45 7 28 -2 53 53 SSE 10 17 29.97 1015 10 16 0.00 0.00
8:55 am 08:55 Sunny 45 7 27 -3 49 49 SSE 8 13 29.97 1015 10 16 0.00 0.00
9:15 am 09:15 Sunny 48 9 28 -2 46 46 SSE 10 17 29.94 1014 10 16 0.00 0.00
9:35 am 09:35 Sunny 52 11 28 -2 41 41 S 14 22 29.90 1013 10 16 0.00 0.00
9:55 am 09:55 Sunny 54 12 28 -2 38 38 S 13 20 29.89 1012 10 16 0.00 0.00
10:15 am 10:15 Sunny 55 13 28 -2 36 36 SSW 15 24 29.88 1012 10 16 0.00 0.00
10:35 am 10:35 Sunny 55 13 28 -2 36 36 S 16 26 29.88 1012 10 16 0.00 0.00
10:55 am 10:55 Sunny 59 15 28 -2 31 31 SSW 15 24 29.87 1011 10 16 0.00 0.00
11:15 am 11:15 Sunny 61 16 28 -2 29 29 S 14 22 29.85 1011 10 16 0.00 0.00
11:35 am 11:35 Sunny 61 16 27 -3 27 27 S 16 26 29.84 1010 10 16 0.00 0.00
11:55 am 11:55 Sunny 63 17 27 -3 25 25 SSW 16 26 29.82 1010 10 16 0.00 0.00
12:15 pm 12:15 Sunny 68 20 27 -3 21 21 SSW 20 31 29.78 1009 10 16 0.00 0.00
12:35 pm 12:35 Sunny 70 21 27 -3 20 20 SSW 15 24 29.77 1008 10 16 0.00 0.00
12:55 pm 12:55 Sunny 73 23 27 -3 17 17 SW 17 28 29.74 1007 10 16 0.00 0.00
1:15 pm 13:15 Sunny 73 23 25 -4 16 16 SSW 20 31 29.73 1007 10 16 0.00 0.00
1:35 pm 13:35 Sunny 75 24 27 -3 16 16 SSW 18 30 29.71 1006 10 16 0.00 0.00
1:55 pm 13:55 Sunny 77 25 25 -4 14 14 SSW 20 31 29.69 1005 10 16 0.00 0.00
2:15 pm 14:15 Sunny 77 25 23 -5 13 13 SW 25 41 29.68 1005 10 16 0.00 0.00
2:35 pm 14:35 Sunny 77 25 23 -5 13 13 SW 28 44 29.67 1005 10 16 0.00 0.00
2:55 pm 14:55 Sunny 73 23 23 -5 15 15 SW 22 35 29.68 1005 10 16 0.00 0.00
3:15 pm 15:15 Sunny 75 24 27 -3 16 16 SW 23 37 29.67 1005 10 16 0.00 0.00
3:35 pm 15:35 Sunny 77 25 27 -3 15 15 SW 22 35 29.65 1004 10 16 0.00 0.00
3:55 pm 15:55 Sunny 77 25 27 -3 15 15 SW 16 26 29.64 1004 10 16 0.00 0.00
4:15 pm 16:15 Sunny 77 25 28 -2 17 17 SW 15 24 29.64 1004 10 16 0.00 0.00
4:35 pm 16:35 Sunny 77 25 27 -3 15 15 SW 21 33 29.64 1004 10 16 0.00 0.00
4:55 pm 16:55 Sunny 75 24 27 -3 16 16 SW 23 37 29.65 1004 10 16 0.00 0.00
5:15 pm 17:15 Sunny 73 23 27 -3 17 17 SW 22 35 29.66 1004 10 16 0.00 0.00
5:35 pm 17:35 Sunny 73 23 27 -3 17 17 SW 20 31 29.65 1004 10 16 0.00 0.00
5:55 pm 17:55 Sunny 73 23 28 -2 19 19 SSW 17 28 29.64 1004 10 16 0.00 0.00
6:15 pm 18:15 Sunny 73 23 28 -2 19 19 SSW 17 28 29.64 1004 10 16 0.00 0.00
6:35 pm 18:35 Sunny 73 23 28 -2 19 19 SSW 13 20 29.64 1004 10 16 0.00 0.00
6:55 pm 18:55 Sunny 73 23 28 -2 19 19 S 9 15 29.63 1003 10 16 0.00 0.00
7:15 pm 19:15 Sunny 72 22 27 -3 19 19 S 8 13 29.63 1003 10 16 0.00 0.00
7:35 pm 19:35 Sunny 68 20 27 -3 21 21 S 7 11 29.64 1004 10 16 0.00 0.00
7:55 pm 19:55 Clear 68 20 27 -3 21 21 S 7 11 29.64 1004 10 16 0.00 0.00
8:15 pm 20:15 Clear 68 20 27 -3 21 21 S 12 19 29.64 1004 10 16 0.00 0.00
8:35 pm 20:35 Clear 68 20 27 -3 21 21 S 12 19 29.63 1004 10 16 0.00 0.00
8:55 pm 20:55 Clear 68 20 27 -3 21 21 S 13 20 29.64 1004 10 16 0.00 0.00
9:15 pm 21:15 Clear 68 20 27 -3 21 21 S 15 24 29.64 1004 10 16 0.00 0.00
9:35 pm 21:35 Clear 68 20 28 -2 23 23 S 17 28 29.64 1004 10 16 0.00 0.00
9:55 pm 21:55 Clear 66 19 27 -3 22 22 S 14 22 29.65 1004 10 16 0.00 0.00
10:15 pm 22:15 Clear 64 18 28 -2 26 26 S 15 24 29.66 1004 10 16 0.00 0.00
10:35 pm 22:35 Clear 64 18 28 -2 26 26 S 18 30 29.66 1004 10 16 0.00 0.00
10:55 pm 22:55 Clear 63 17 28 -2 27 27 S 15 24 29.67 1005 10 16 0.00 0.00
11:15 pm 23:15 Clear 63 17 28 -2 27 27 S 16 26 29.68 1005 10 16 0.00 0.00
11:35 pm 23:35 Mostly Cloudy 61 16 28 -2 29 29 S 17 28 29.70 1006 10 16 0.00 0.00
11:55 pm 23:55 Cloudy 61 16 28 -2 29 29 S 16 26 29.70 1006 10 16 0.00 0.00

Powered by AerisWeather